#timestamp,LO_Frequency,Hit,StdDev 
1582264815.3,286046995.8,Y
1582264835.2,286046999.9,P
1582264855.0,286046998.5,N
1582264855.9,286046998.5,N
1582264875.8,286046998.4,N
1582264895.6,286047000.6,N
1582264915.4,286047000.7,N
1582264935.3,286046999.5,N
1582264955.1,286047001.1,N
1582264975.8,286046998.4,N
1582264995.7,286047000.7,N
1582265015.5,286047000.8,N
1582265035.4,286046999.5,N
1582265055.2,286046997.0,N
1582265075.0,286046996.9,N
1582265075.9,286046996.9,N
1582265095.8,286046996.8,N
1582265115.6,286046994.9,Y
1582265135.5,286046996.9,P
1582265155.3,286046998.0,N
1582265175.1,286046994.9,P
1582265195.9,286046993.4,Y
1582265215.7,286046996.7,P
1582265235.5,286046998.8,P
1582265255.4,286046998.2,N
1582265275.2,286046998.2,N
1582265295.1,286046998.5,N
1582265296.0,286046998.5,N
1582265315.8,286046999.2,N
1582265335.6,286046998.4,N
1582265355.5,286046998.2,N
1582265375.3,286046998.2,N
1582265395.1,286047001.3,N
1582265415.9,286047000.2,N
1582265435.7,286047000.5,N
1582265455.6,286047001.1,N
1582265475.4,286047000.8,N
1582265495.2,286047002.3,N
1582265515.1,286046999.7,N
1582265516.0,286046999.7,N
1582265535.8,286047002.3,N
1582265555.7,286046999.9,N
1582265575.5,286047001.3,N
1582265595.3,286047004.2,N
1582265615.2,286047002.8,N
1582265635.0,286047000.1,N
1582265635.9,286047000.1,N
1582265655.8,286047001.0,N
1582265675.6,286046999.8,N
1582265695.4,286047002.8,N
1582265715.3,286047000.1,N
1582265735.1,286046999.8,N
1582265755.9,286047005.9,Y
1582265775.7,286047004.1,P
1582265795.5,286047001.3,N
1582265815.4,286047004.3,N
1582265835.2,286047005.5,Y
1582265855.0,286047002.6,P
1582265855.9,286047002.6,P
1582265875.8,286047001.5,P
1582265895.6,286047003.8,Y
1582265915.5,286046998.3,P
1582265935.3,286047001.0,N
1582265955.1,286047001.1,N
1582265975.9,286046999.4,N
1582265995.7,286047002.6,N
1582266015.6,286047001.3,N
1582266035.4,286047000.0,N
1582266055.2,286047002.6,N
1582266075.1,286047002.7,N
1582266076.0,286047002.7,N
1582266095.8,286047000.0,N
1582266115.6,286047002.7,N
1582266135.5,286047002.4,N
1582266155.3,286046999.9,N
1582266175.2,286046998.2,N
1582266195.9,286046999.0,N
1582266215.7,286046996.8,N
1582266235.6,286046999.5,N
1582266255.4,286046999.2,N
1582266275.2,286046996.7,N
1582266295.1,286046999.0,N
1582266296.0,286046999.0,N
1582266315.8,286046998.6,N
1582266335.7,286046998.2,N
1582266355.5,286046999.8,N
1582266375.3,286047000.2,N
1582266395.2,286047000.6,N
1582266415.0,286047002.7,N
1582266415.9,286047002.7,N
1582266435.8,286047000.7,N
1582266455.6,286047000.7,N
1582266475.4,286046998.1,N
1582266495.3,286047000.8,N
1582266515.1,286047002.3,N
1582266535.8,286047002.5,N
1582266555.7,286047003.9,N
1582266575.5,286047004.0,N
1582266595.4,286047002.6,N
1582266615.2,286047002.2,N
1582266635.0,286047004.4,N
1582266635.9,286047004.4,N
1582266655.8,286047001.9,N
1582266675.6,286047003.4,N
1582266695.5,286047004.6,N
1582266715.3,286047005.6,N
1582266735.1,286047003.3,N
1582266755.9,286047005.6,N
1582266775.7,286047005.8,N
1582266795.6,286047002.2,N
1582266815.4,286047004.1,N
1582266835.2,286047003.9,N
1582266855.1,286047003.9,N
1582266856.0,286047003.9,N
1582266875.8,286047003.8,N
1582266895.7,286047003.1,N
1582266915.5,286047002.4,N
1582266935.3,286047001.9,N
1582266955.2,286047000.0,N
1582266975.0,286046999.8,N
1582266975.9,286046999.8,N
1582266995.7,286047001.6,N
1582267015.6,286046999.8,N
1582267035.4,286047002.6,N
1582267055.3,286047002.2,N
1582267075.1,286047001.4,N
1582267076.0,286047001.4,N
1582267095.8,286047001.8,N
1582267115.7,286047004.4,N
1582267135.5,286047002.7,N
1582267155.4,286047001.7,N
1582267175.2,286047001.6,N
1582267195.0,286047003.0,N
1582267195.9,286047003.0,N
1582267215.8,286047007.5,Y
1582267235.6,286047005.7,P
1582267255.5,286047003.1,N
1582267275.3,286047001.7,N
1582267295.1,286047002.2,N
1582267315.9,286047002.1,N
1582267335.7,286046999.7,N
1582267355.6,286047003.9,N
1582267375.4,286047003.1,N
1582267395.2,286047004.1,N
1582267415.1,286047006.0,Y
1582267416.0,286047006.0,P
1582267435.8,286046998.8,N
1582267455.6,286046998.8,N
1582267475.5,286047000.8,N
1582267495.3,286047002.2,N
1582267515.2,286047001.6,N
1582267535.9,286047001.3,N
1582267555.7,286047001.4,N
1582267575.6,286047001.6,N
1582267595.4,286047002.0,N
1582267615.3,286047002.5,N
1582267635.1,286047004.4,N
1582267636.0,286047004.4,N
1582267655.8,286047003.2,N
1582267675.7,286047004.2,N
1582267695.5,286047001.8,N
1582267715.3,286046999.7,N
1582267735.2,286047001.3,N
1582267755.0,286047003.5,N
1582267755.9,286047003.5,N
1582267775.8,286047004.1,N
1582267795.6,286047006.0,Y
1582267815.4,286047002.2,P
1582267835.3,286047000.4,P
1582267855.1,286047001.0,N
1582267875.9,286047000.3,N
1582267895.7,286046999.3,N
1582267915.5,286046998.3,N
1582267935.4,286046999.3,N
1582267955.2,286046998.3,N
1582267975.0,286046999.0,N
1582267976.0,286046999.0,N
1582267995.8,286047001.1,N
1582268015.6,286046998.2,N
1582268035.5,286047001.2,N
1582268055.3,286047001.0,N
1582268075.1,286047002.8,N
1582268095.9,286047000.6,N
1582268115.7,286046998.8,N
1582268135.6,286046999.4,N
1582268155.4,286046998.7,N
1582268175.2,286046998.4,N
1582268195.1,286046996.5,N
1582268196.0,286046996.5,N
1582268215.8,286046998.8,N
1582268235.6,286046996.9,N
1582268255.5,286046999.0,N
1582268275.3,286046996.6,N
1582268295.2,286046999.2,N
1582268315.9,286046998.0,N
1582268335.3,286046995.4,N
1582268355.2,286046998.0,N
1582268375.0,286046994.3,Y
1582268375.9,286046994.3,P
1582268395.7,286046995.1,N
